When you browse on this site, cookies collect data to enhance your experience and personalize the content and advertising you see.
Visit our Privacy Policy to learn more. By continuing to use the site, you agree to this use of cookies and data.

Stündliche Wetter Santaren

Heute, 11 August, Dienstag

Zeit Temperatur Niederschläge Wind Luftdruck Luftfeuchtigkeit
00:00 +18°C° 0 mm 2 m/S 756 mmHg 95%
01:00 +19°C° 0 mm 1 m/S 755 mmHg 95%
02:00 +19°C° 0 mm 1 m/S 755 mmHg 94%
03:00 +19°C° 0 mm 1 m/S 755 mmHg 93%
04:00 +20°C° 0 mm 1 m/S 755 mmHg 91%
05:00 +20°C° 0 mm 1 m/S 755 mmHg 89%
06:00 +21°C° 0 mm 1 m/S 755 mmHg 83%
07:00 +22°C° 0 mm 1 m/S 755 mmHg 76%
08:00 +24°C° 0 mm 1 m/S 756 mmHg 69%
09:00 +26°C° 0 mm 1 m/S 756 mmHg 62%
10:00 +27°C° 0 mm 2 m/S 756 mmHg 54%
11:00 +29°C° 0 mm 2 m/S 756 mmHg 47%
12:00 +30°C° 0 mm 3 m/S 756 mmHg 46%
13:00 +30°C° 0 mm 4 m/S 755 mmHg 45%
14:00 +30°C° 0 mm 5 m/S 755 mmHg 44%
15:00 +29°C° 0 mm 5 m/S 755 mmHg 51%
16:00 +27°C° 0 mm 5 m/S 755 mmHg 58%
17:00 +25°C° 0 mm 5 m/S 756 mmHg 65%
18:00 +23°C° 0 mm 5 m/S 756 mmHg 74%
19:00 +21°C° 0 mm 4 m/S 756 mmHg 82%
20:00 +20°C° 0 mm 3 m/S 757 mmHg 91%
21:00 +20°C° 0 mm 3 m/S 757 mmHg 89%
22:00 +20°C° 0 mm 3 m/S 757 mmHg 88%
23:00 +20°C° 0 mm 2 m/S 757 mmHg 86%

Morgen, 12 August, Mittwoch

Zeit Temperatur Niederschläge Wind Luftdruck Luftfeuchtigkeit
00:00 +20°C° 0 mm 2 m/S 757 mmHg 87%
01:00 +20°C° 0 mm 2 m/S 757 mmHg 87%
02:00 +20°C° 0 mm 2 m/S 757 mmHg 87%
03:00 +20°C° 0 mm 2 m/S 757 mmHg 88%
04:00 +20°C° 0 mm 2 m/S 757 mmHg 88%
05:00 +21°C° 0 mm 1 m/S 758 mmHg 89%
06:00 +21°C° 0.1 mm 2 m/S 758 mmHg 83%
07:00 +23°C° 0.1 mm 2 m/S 758 mmHg 78%
08:00 +24°C° 0.1 mm 2 m/S 758 mmHg 72%
09:00 +25°C° 0 mm 2 m/S 758 mmHg 68%
10:00 +26°C° 0 mm 3 m/S 759 mmHg 64%
11:00 +26°C° 0 mm 3 m/S 759 mmHg 59%
12:00 +27°C° 0 mm 4 m/S 759 mmHg 57%
13:00 +28°C° 0 mm 5 m/S 758 mmHg 55%
14:00 +28°C° 0 mm 5 m/S 758 mmHg 53%
15:00 +27°C° 0 mm 5 m/S 758 mmHg 58%
16:00 +26°C° 0 mm 6 m/S 758 mmHg 64%
17:00 +23°C° 0 mm 6 m/S 758 mmHg 70%
18:00 +22°C° 0 mm 5 m/S 759 mmHg 75%
19:00 +21°C° 0 mm 4 m/S 759 mmHg 80%
20:00 +19°C° 0 mm 4 m/S 760 mmHg 85%
21:00 +19°C° 0 mm 3 m/S 760 mmHg 89%
22:00 +18°C° 0 mm 3 m/S 760 mmHg 92%
23:00 +17°C° 0 mm 2 m/S 760 mmHg 95%

übermorgen, 13 August, Donnerstag

Zeit Temperatur Niederschläge Wind Luftdruck Luftfeuchtigkeit
00:00 +17°C° 0 mm 2 m/S 760 mmHg 96%
01:00 +17°C° 0 mm 2 m/S 759 mmHg 96%
02:00 +17°C° 0 mm 2 m/S 759 mmHg 96%
03:00 +17°C° 0 mm 2 m/S 759 mmHg 96%
04:00 +16°C° 0 mm 2 m/S 759 mmHg 96%
05:00 +16°C° 0 mm 2 m/S 759 mmHg 96%
06:00 +18°C° 0 mm 2 m/S 760 mmHg 86%
07:00 +21°C° 0 mm 2 m/S 760 mmHg 75%
08:00 +24°C° 0 mm 3 m/S 760 mmHg 65%
09:00 +26°C° 0 mm 3 m/S 760 mmHg 57%
10:00 +28°C° 0 mm 4 m/S 760 mmHg 50%
11:00 +30°C° 0 mm 4 m/S 760 mmHg 42%
12:00 +30°C° 0 mm 5 m/S 759 mmHg 41%
13:00 +30°C° 0 mm 6 m/S 759 mmHg 40%
14:00 +30°C° 0 mm 6 m/S 759 mmHg 39%
15:00 +29°C° 0 mm 7 m/S 759 mmHg 42%
16:00 +27°C° 0 mm 7 m/S 759 mmHg 46%
17:00 +26°C° 0 mm 7 m/S 759 mmHg 49%
18:00 +22°C° 0 mm 6 m/S 759 mmHg 60%
19:00 +20°C° 0 mm 5 m/S 760 mmHg 70%
20:00 +18°C° 0 mm 4 m/S 760 mmHg 81%
21:00 +18°C° 0 mm 4 m/S 760 mmHg 84%
22:00 +17°C° 0 mm 3 m/S 760 mmHg 88%
23:00 +17°C° 0 mm 3 m/S 760 mmHg 91%

14 August, Freitag

Zeit Temperatur Niederschläge Wind Luftdruck Luftfeuchtigkeit
00:00 +17°C° 0 mm 3 m/S 760 mmHg 92%
01:00 +16°C° 0 mm 3 m/S 760 mmHg 93%
02:00 +16°C° 0 mm 3 m/S 759 mmHg 93%
03:00 +16°C° 0 mm 3 m/S 759 mmHg 94%
04:00 +16°C° 0 mm 3 m/S 759 mmHg 95%
05:00 +16°C° 0 mm 3 m/S 760 mmHg 95%
06:00 +18°C° 0 mm 3 m/S 760 mmHg 83%
07:00 +21°C° 0 mm 4 m/S 760 mmHg 72%
08:00 +23°C° 0 mm 4 m/S 760 mmHg 60%
09:00 +26°C° 0 mm 5 m/S 760 mmHg 53%
10:00 +28°C° 0 mm 5 m/S 760 mmHg 45%
11:00 +29°C° 0 mm 5 m/S 759 mmHg 38%
12:00 +29°C° 0 mm 6 m/S 759 mmHg 38%
13:00 +29°C° 0 mm 6 m/S 759 mmHg 37%
14:00 +29°C° 0 mm 7 m/S 759 mmHg 37%
15:00 +28°C° 0 mm 6 m/S 759 mmHg 42%
16:00 +27°C° 0 mm 6 m/S 759 mmHg 48%
17:00 +24°C° 0 mm 6 m/S 759 mmHg 53%
18:00 +22°C° 0 mm 5 m/S 759 mmHg 66%
19:00 +20°C° 0 mm 3 m/S 760 mmHg 78%
20:00 +18°C° 0 mm 2 m/S 760 mmHg 90%
21:00 +17°C° 0 mm 2 m/S 760 mmHg 92%
22:00 +17°C° 0 mm 2 m/S 760 mmHg 94%
23:00 +16°C° 0 mm 2 m/S 760 mmHg 96%

15 August, Samstag

Zeit Temperatur Niederschläge Wind Luftdruck Luftfeuchtigkeit
00:00 +16°C° 0 mm 2 m/S 760 mmHg 96%
01:00 +16°C° 0 mm 2 m/S 759 mmHg 96%
02:00 +16°C° 0 mm 2 m/S 759 mmHg 96%
03:00 +16°C° 0 mm 2 m/S 759 mmHg 96%
04:00 +16°C° 0 mm 2 m/S 759 mmHg 96%
05:00 +16°C° 0 mm 2 m/S 759 mmHg 96%
06:00 +18°C° 0 mm 2 m/S 759 mmHg 84%
07:00 +21°C° 0 mm 3 m/S 759 mmHg 72%
08:00 +24°C° 0 mm 3 m/S 760 mmHg 60%
09:00 +26°C° 0 mm 4 m/S 759 mmHg 53%
10:00 +27°C° 0 mm 4 m/S 759 mmHg 47%
11:00 +29°C° 0 mm 5 m/S 759 mmHg 40%
12:00 +29°C° 0 mm 5 m/S 759 mmHg 41%
13:00 +29°C° 0 mm 6 m/S 759 mmHg 41%
14:00 +28°C° 0 mm 6 m/S 759 mmHg 41%
15:00 +27°C° 0 mm 6 m/S 759 mmHg 45%
16:00 +26°C° 0 mm 6 m/S 759 mmHg 50%
17:00 +23°C° 0 mm 6 m/S 758 mmHg 55%
18:00 +21°C° 0 mm 5 m/S 759 mmHg 66%
19:00 +19°C° 0 mm 4 m/S 759 mmHg 78%
20:00 +17°C° 0 mm 3 m/S 760 mmHg 90%
21:00 +17°C° 0 mm 3 m/S 760 mmHg 91%
22:00 +17°C° 0 mm 3 m/S 760 mmHg 93%
23:00 +17°C° 0 mm 3 m/S 760 mmHg 95%

16 August, Sonntag

Zeit Temperatur Niederschläge Wind Luftdruck Luftfeuchtigkeit
00:00 +17°C° 0 mm 3 m/S 760 mmHg 95%
01:00 +16°C° 0 mm 3 m/S 760 mmHg 95%
02:00 +16°C° 0 mm 3 m/S 759 mmHg 95%
03:00 +16°C° 0 mm 3 m/S 759 mmHg 96%
04:00 +16°C° 0 mm 3 m/S 760 mmHg 96%
05:00 +16°C° 0 mm 2 m/S 760 mmHg 96%
06:00 +18°C° 0 mm 3 m/S 760 mmHg 83%
07:00 +20°C° 0 mm 4 m/S 760 mmHg 71%
08:00 +22°C° 0 mm 5 m/S 760 mmHg 58%
09:00 +25°C° 0 mm 5 m/S 760 mmHg 51%
10:00 +26°C° 0 mm 5 m/S 760 mmHg 43%
11:00 +28°C° 0 mm 6 m/S 760 mmHg 36%
12:00 +28°C° 0 mm 6 m/S 760 mmHg 36%
13:00 +28°C° 0 mm 7 m/S 760 mmHg 36%
14:00 +28°C° 0 mm 7 m/S 759 mmHg 36%
15:00 +26°C° 0 mm 7 m/S 759 mmHg 42%
16:00 +24°C° 0 mm 7 m/S 759 mmHg 47%
17:00 +23°C° 0 mm 6 m/S 759 mmHg 53%
18:00 +21°C° 0 mm 6 m/S 760 mmHg 63%
19:00 +19°C° 0 mm 5 m/S 760 mmHg 73%
20:00 +17°C° 0 mm 4 m/S 760 mmHg 84%
21:00 +17°C° 0 mm 4 m/S 760 mmHg 87%
22:00 +17°C° 0 mm 4 m/S 760 mmHg 90%
23:00 +16°C° 0 mm 3 m/S 760 mmHg 94%
Mehr zeigen